Weather observations for the past three days for
Kansas City, Kansas City International Airport
Imperial (Metric)
Date Time (cdt) Wind (mph) Vis. (mi.) Weather Sky Cond. Temperature (ºF) Relative Humidity Wind Chill (°F) Heat Index (°F) Pressure Precipitation (in)
Air Dwpt 6 hour altimeter (in) sea level (mb) 1 hr 3 hr 6 hr
Max. Min.
19 11:53 S 6 10.00 Partly Cloudy SCT040 SCT250 75.9 60.1 58% 78 30.17 1020.9
19 10:53 S 6 10.00 A Few Clouds FEW030 FEW250 73.9 59 60% 30.17 1021.0
19 09:53 S 7 10.00 A Few Clouds FEW250 72 60.1 66% 30.18 1021.3
19 08:53 SE 8 10.00 A Few Clouds FEW250 69.1 59 70% 30.19 1021.4
19 07:53 SE 8 10.00 A Few Clouds FEW250 66 59 78% 30.19 1021.3
19 06:53 SE 8 10.00 A Few Clouds FEW100 62.1 57 64 60.1 84% 30.18 1021.2
19 05:53 SE 6 10.00 Fair CLR 61 55.9 84% 30.17 1021.0
19 04:53 SE 6 10.00 Fair CLR 61 55.9 84% 30.18 1021.2
19 03:53 SE 6 10.00 Fair CLR 62.1 57 84% 30.18 1021.0
19 01:53 SE 5 10.00 Fair CLR 62.1 57 84% 30.18 1021.3
19 00:53 SE 6 10.00 Fair CLR 64 57 77 64 78% 30.18 1021.3
18 23:53 SE 6 10.00 Fair CLR 66 57 73% 30.18 1021.0
18 22:53 SE 6 10.00 Fair CLR 69.1 55.9 63% 30.17 1020.9
18 21:53 E 8 10.00 Fair CLR 72 55.9 57% 30.16 1020.4
18 20:53 NE 6 10.00 Fair CLR 72 55.9 57% 30.15 1020.1
18 19:53 NE 8 10.00 A Few Clouds FEW055 75 55.9 52% 78 30.15 1020.0
18 18:53 N 7 10.00 A Few Clouds FEW055 77 55.9 80.1 77 48% 79 30.15 1020.1
18 17:53 N 7 10.00 A Few Clouds FEW055 78.1 55 45% 79 30.17 1020.7
18 16:53 NE 9 10.00 Partly Cloudy FEW055 SCT250 79 55.9 45% 80 30.19 1021.3
18 15:53 NE 7 10.00 Partly Cloudy SCT055 SCT250 79 55.9 45% 80 30.2 1021.8
18 14:53 NE 9 10.00 Partly Cloudy SCT050 SCT250 77 54 45% 78 30.2 1022.0
18 13:53 N 6 10.00 Partly Cloudy SCT050 SCT250 77 57 50% 79 30.22 1022.3
18 12:53 N 9 10.00 Partly Cloudy SCT050 SCT250 78.1 55 78.1 64 45% 79 30.23 1022.6
18 11:53 NE 7 10.00 A Few Clouds FEW060 FEW250 77 55 47% 78 30.23 1022.9
18 10:53 NE 6 10.00 Partly Cloudy FEW060 SCT250 75 55 50% 78 30.23 1022.8
18 09:53 E 7 10.00 Partly Cloudy FEW060 SCT250 73 57.9 59% 30.22 1022.7
18 07:53 NE 8 10.00 Partly Cloudy SCT060 66 59 78% 30.21 1022.2
18 06:53 NE 7 8.00 Partly Cloudy SCT060 SCT250 64 59 68 60.1 84% 30.2 1021.8
18 05:53 NE 6 10.00 Partly Cloudy FEW060 SCT250 64 57.9 81% 30.19 1021.3
18 04:53 NE 7 10.00 A Few Clouds FEW060 64 59 84% 30.17 1020.7
18 03:53 NE 7 10.00 Fair CLR 64.9 59 81% 30.16 1020.4
18 02:53 NE 5 10.00 Fair CLR 64.9 61 87% 30.17 1020.7
18 01:53 NE 6 10.00 Fair CLR 66.9 60.1 79% 30.18 1020.9
18 00:53 NE 6 10.00 Fair CLR 66.9 60.1 80.1 66.9 79% 30.18 1021.0
17 23:53 NE 6 10.00 Fair CLR 69.1 60.1 73% 30.17 1020.8
17 22:53 NE 6 10.00 Fair CLR 70 60.1 71% 30.15 1020.0
17 21:53 N 7 10.00 Fair CLR 71.1 60.1 68% 30.13 1019.4
17 20:53 N 7 10.00 Fair CLR 72 61 68% 30.1 1018.4
17 19:53 N 8 10.00 A Few Clouds FEW046 77 62.1 60% 79 30.08 1017.7
17 18:53 N 8 10.00 Partly Cloudy FEW046 SCT070 80.1 64 84 78.1 58% 82 30.07 1017.3
17 17:53 N 8 10.00 Partly Cloudy SCT090 78.1 64 62% 80 30.06 1017.2
17 16:53 N 9 10.00 Partly Cloudy SCT040 82.9 64 53% 84 30.08 1017.7
17 15:53 N 12 10.00 Mostly Cloudy BKN040 82.9 63 51% 84 30.09 1018.0
17 14:53 N 7 10.00 Mostly Cloudy FEW040 BKN130 82.9 64 53% 84 30.1 1018.3
17 13:53 N 10 10.00 Partly Cloudy FEW040 SCT130 82.9 64.9 55% 85 30.1 1018.1
17 12:53 N 12 10.00 A Few Clouds FEW030 FEW250 82 64 82 64.9 55% 84 30.09 1018.0
17 11:53 NE 12 10.00 Partly Cloudy FEW030 SCT250 81 64 57% 83 30.09 1018.0
17 10:53 N 6 10.00 Mostly Cloudy SCT120 BKN250 80.1 66 62% 82 30.1 1018.2
17 09:53 Vrbl 5 10.00 Mostly Cloudy SCT110 BKN250 78.1 66.9 69% 80 30.1 1018.2
17 08:53 NE 8 10.00 Mostly Cloudy FEW080 BKN250 73 64 74% 30.08 1017.7
17 07:53 N 7 10.00 Mostly Cloudy FEW080 BKN250 68 64 87% 30.05 1016.5
17 06:53 N 5 10.00 Mostly Cloudy BKN250 64.9 57 70 64 76% 30.04 1016.4
17 05:53 N 5 10.00 Mostly Cloudy BKN250 64 55.9 75% 30.01 1015.2
17 04:53 N 8 10.00 A Few Clouds FEW250 64 60.1 87% 29.98 1014.3
17 03:53 NE 7 10.00 Fair CLR 66 61 84% 29.98 1014.3
17 02:53 NE 6 10.00 Fair CLR 66.9 64.9 93% 29.97 1013.9
17 01:53 NE 8 10.00 A Few Clouds FEW150 69.1 64.9 87% 29.98 1014.2
17 00:53 NE 8 10.00 A Few Clouds FEW150 69.1 66 81 69.1 90% 29.98 1014.1
16 23:53 N 7 10.00 Fair CLR 70 66.9 90% 29.97 1013.9
16 22:53 N 8 10.00 A Few Clouds FEW250 71.1 68 90% 29.96 1013.6
16 21:53 N 6 10.00 Fair CLR 72 70 94% 29.94 1012.9
16 20:53 N 8 10.00 Partly Cloudy SCT200 73.9 70 88% 29.92 1012.3
16 19:53 N 6 10.00 A Few Clouds FEW029 78.1 72 82% 80 29.91 1011.7
16 18:53 N 8 10.00 Mostly Cloudy SCT023 SCT034 BKN043 81 73 82.9 78.1 77% 86 29.92 1011.9
16 17:53 N 5 10.00 Mostly Cloudy FEW019 BKN049 BKN140 81 73 77% 86 29.93 1012.2
16 16:53 N 8 10.00 Mostly Cloudy SCT018 BKN036 BKN055 81 73.9 79% 86 29.94 1012.7
16 14:53 NE 9 10.00 Overcast FEW017 BKN130 OVC200 80.1 73.9 82% 85 29.91 1011.7
16 13:53 N 12 10.00 Overcast FEW016 BKN130 OVC200 78.1 73.9 87% 81 29.88 1010.7
16 12:53 N 10 10.00 Overcast SCT011 BKN130 OVC250 79 73.9 79 72 85% 83 29.87 1010.3 0.43
Date Time (cdt) Wind (mph) Vis. (mi.) Weather Sky Cond. Air Dwpt Max. Min. Relative Humidity Wind Chill (°F) Heat Index (°F) altimeter (in) sea level (mb) 1 hr 3 hr 6 hr
6 hour
Temperature (ºF) Pressure Precipitation (in)